Theta_e
304 304 304 304 303 303 303 303 303 303 304 304 304 304 304 305 305 305 305 305 305 305 305 304 304 304 304 304 304 304 306 306 306 307 308 306 304 305 306 306 306 306 305 305 305 307 309 310 310 308 309 311 312 312 312 312 311 313 318 318 316 316 315 312 312 312 312 312 312 312 312 312 314 313 312 312 312 312 311 312 312 312 312 312 312 312 312 311
304 304 304 303 303 303 303 303 303 303 303 304 304 304 304 304 305 305 305 305 305 305 305 305 304 304 304 305 304 304 305 306 306 308 308 305 304 304 306 306 306 306 305 305 304 305 307 309 309 307 309 312 312 313 314 314 311 314 318 316 315 315 313 311 312 311 312 312 312 312 311 312 313 312 311 312 313 312 312 312 311 312 313 313 313 312 312 312
305 304 304 303 303 303 303 303 303 303 303 304 304 304 304 304 305 305 305 305 305 305 305 305 305 304 304 304 304 304 304 306 309 310 308 305 304 304 305 306 305 306 305 305 304 305 306 307 307 307 309 312 312 312 314 315 313 314 314 315 316 314 312 311 312 312 312 312 312 311 310 311 311 311 312 314 314 312 312 311 311 313 313 313 313 313 313 313
305 305 304 303 303 303 303 303 303 303 303 304 304 304 304 304 305 305 305 305 305 305 305 305 305 304 304 304 304 304 303 309 314 311 307 305 304 304 305 306 305 305 305 305 304 305 305 306 307 308 309 311 312 312 313 316 315 314 312 313 315 313 311 311 312 312 311 311 311 311 311 312 312 312 313 314 314 312 311 312 312 313 313 312 312 312 312 313
305 305 304 304 304 303 303 303 303 303 303 303 304 304 304 304 304 304 305 305 305 305 305 306 305 305 304 304 305 304 305 316 316 307 306 305 304 304 304 305 305 305 305 305 304 306 307 308 309 309 309 311 313 312 314 315 313 312 311 311 313 311 311 312 312 312 311 310 310 311 312 313 312 312 312 313 313 312 310 311 312 312 311 311 311 311 311 311
305 305 305 304 303 303 303 303 303 303 303 303 303 304 304 305 304 304 304 305 305 305 305 305 305 305 304 304 305 303 306 315 312 306 307 305 304 305 304 305 305 305 305 305 305 308 310 310 310 310 310 310 313 313 313 313 311 312 313 311 312 312 312 312 312 312 311 311 311 312 312 312 312 312 310 311 312 311 310 311 312 312 311 311 310 310 310 310
305 305 305 304 304 303 303 303 303 303 303 303 303 303 304 304 304 304 304 304 305 305 305 305 305 305 305 304 305 306 308 311 309 308 307 305 305 304 304 305 305 305 305 305 306 308 309 309 310 310 310 310 312 313 313 312 311 312 314 313 313 313 313 312 312 311 311 311 311 312 312 312 312 312 310 310 310 309 310 312 312 312 311 311 310 310 309 310
305 305 305 305 304 304 304 303 303 303 303 303 303 303 303 304 304 304 304 304 304 305 305 305 305 305 305 305 305 309 312 312 311 309 307 305 305 304 304 305 304 305 304 304 304 305 309 310 310 309 309 310 311 313 313 312 313 313 314 315 314 314 313 312 312 312 312 312 311 312 312 312 311 310 310 310 308 309 311 312 312 313 311 309 309 309 309 310
305 305 305 305 304 304 304 304 303 303 303 303 303 303 303 303 304 304 304 304 304 304 304 304 305 305 305 304 306 310 313 312 311 309 307 305 305 305 305 304 304 305 304 305 304 304 310 312 310 309 310 311 310 312 313 311 314 315 314 315 314 313 312 312 313 314 313 312 312 313 313 312 310 311 311 310 308 310 311 312 312 312 310 308 308 310 310 310
305 305 305 305 305 304 304 304 304 303 303 303 303 303 303 303 303 304 304 304 304 304 304 304 304 305 305 304 307 312 313 311 311 308 307 306 305 306 305 304 304 304 304 305 304 304 309 309 308 308 309 310 310 312 313 312 314 314 313 313 312 312 312 313 314 314 313 312 311 313 314 312 311 312 312 310 311 312 311 311 311 310 309 310 311 311 311 311
305 304 305 305 305 304 304 304 304 303 303 303 303 303 303 303 303 304 304 304 304 304 304 304 304 304 304 304 306 311 312 311 311 309 308 306 306 306 305 304 304 304 304 304 304 304 306 306 306 307 309 311 310 311 313 313 314 313 312 312 311 311 312 313 314 313 311 312 311 312 313 311 311 313 312 310 313 314 311 310 309 309 311 311 312 311 311 311
305 305 305 304 304 304 304 304 304 304 303 303 303 303 303 303 303 303 304 303 303 304 304 304 304 304 303 303 304 308 310 310 310 309 308 306 306 306 305 305 304 304 304 304 305 304 305 306 306 308 311 311 310 313 315 313 312 312 311 313 314 316 316 315 314 313 311 312 311 310 312 313 313 314 313 311 313 314 311 309 310 310 311 311 311 311 311 310
306 305 305 305 304 304 304 304 304 304 303 303 303 303 303 302 303 303 303 303 303 304 303 303 303 303 303 304 306 308 309 309 309 308 308 307 306 306 305 305 304 304 304 304 305 304 305 306 306 309 311 310 311 313 313 310 310 312 313 313 313 316 320 317 314 313 311 311 311 310 310 311 314 315 313 312 313 314 312 310 311 311 310 311 311 310 310 310
310 307 306 306 305 304 304 303 304 304 303 303 303 303 303 302 302 303 303 303 303 303 303 303 303 303 304 306 308 308 308 308 308 308 308 307 306 306 305 305 305 305 304 304 305 305 305 306 306 308 309 309 311 311 311 311 311 313 315 315 313 313 319 317 312 312 313 312 309 310 310 307 310 314 314 314 314 314 312 311 311 311 311 310 310 311 310 310
315 311 308 306 306 305 304 304 303 303 303 303 303 303 302 302 302 302 303 302 303 303 303 303 303 303 305 307 307 307 308 308 308 308 308 307 306 306 306 305 305 305 304 304 305 305 306 306 308 311 312 311 310 311 314 316 314 314 315 318 315 313 319 318 313 312 313 313 309 309 310 308 309 311 314 315 315 313 312 312 312 312 312 310 310 311 311 311
318 316 312 309 306 305 305 304 303 303 303 303 303 303 303 302 302 302 302 302 302 303 303 303 304 304 306 308 309 309 310 309 309 309 308 307 306 306 306 305 305 305 304 304 305 306 306 306 309 312 312 311 311 312 314 314 315 315 315 317 316 312 316 319 316 312 310 311 310 310 310 309 309 310 311 313 313 313 312 313 312 312 312 311 311 311 311 312
320 318 316 313 309 306 305 304 304 303 302 303 303 303 302 302 302 302 302 302 302 302 302 303 305 305 307 309 310 310 310 310 310 309 308 308 306 305 305 305 306 304 304 305 306 307 306 308 310 310 310 312 313 313 314 316 317 316 314 315 315 312 312 315 316 313 310 311 312 312 311 310 310 309 309 310 310 311 311 312 312 312 312 311 311 312 312 312
321 320 318 316 313 309 306 305 304 303 302 302 302 302 302 302 302 301 301 302 301 303 303 303 305 307 310 311 309 309 310 309 310 310 309 307 306 305 304 305 305 303 307 310 310 309 309 309 310 311 312 313 313 312 316 319 316 315 314 314 315 313 311 312 316 314 312 313 314 312 310 309 309 309 309 310 310 311 311 311 311 312 312 311 311 312 312 312
321 321 319 318 315 312 309 306 305 304 303 302 302 302 301 301 302 302 301 301 302 305 308 308 306 308 314 313 310 310 310 309 309 309 308 307 306 305 305 305 304 305 311 314 312 312 311 310 312 315 317 316 315 316 318 317 314 314 315 315 314 312 310 310 316 314 311 313 312 310 309 308 308 309 308 309 310 310 311 311 312 312 311 311 311 311 311 311
321 321 320 318 317 314 311 309 306 305 304 302 302 301 302 305 307 309 307 304 304 306 309 311 309 308 312 312 309 310 309 308 308 308 308 307 305 306 305 305 306 308 312 315 313 311 310 311 315 318 320 318 316 316 316 314 312 312 314 315 314 313 313 313 316 313 309 310 311 309 309 308 308 308 308 309 310 310 311 311 312 312 311 311 311 311 312 312
320 320 320 319 317 315 312 310 308 306 305 303 301 301 305 310 311 311 308 306 307 305 305 307 307 307 310 310 310 309 308 307 307 307 308 306 305 308 308 307 310 313 312 313 312 310 309 313 316 318 319 317 315 314 313 312 312 313 313 314 314 315 315 315 316 312 308 309 310 309 309 309 308 309 309 310 311 311 311 311 312 311 311 311 311 311 312 312
320 320 320 319 317 315 313 311 309 308 305 304 302 300 304 307 307 306 304 304 305 304 305 306 306 307 308 309 309 308 307 309 309 307 307 306 305 308 310 309 313 316 314 313 313 313 313 315 317 316 315 315 314 313 312 311 312 314 314 314 315 315 315 316 315 311 310 311 311 310 309 309 309 309 310 310 311 312 312 312 312 311 311 311 311 311 311 311
320 319 319 318 317 315 313 311 310 309 306 304 302 301 301 302 302 302 302 304 305 304 305 306 306 307 307 307 308 307 306 308 310 309 307 306 305 307 310 311 312 315 316 316 315 315 318 319 316 312 313 316 315 313 312 312 313 313 313 315 317 315 314 315 314 312 312 311 311 310 310 310 310 310 312 312 312 312 312 312 311 311 311 311 311 311 310 310
320 319 318 317 316 314 312 311 310 310 307 305 303 302 301 301 302 301 303 306 307 305 305 305 306 306 306 307 306 306 306 306 309 310 308 307 306 308 310 312 313 313 315 317 315 315 319 318 313 311 313 315 316 314 313 313 313 313 314 315 315 314 312 312 313 311 311 312 312 312 312 314 314 315 317 315 313 313 313 312 312 311 311 310 310 310 310 310
319 319 318 317 315 314 312 310 311 311 308 305 304 302 301 301 301 301 304 308 309 308 308 307 308 308 306 306 306 306 306 307 308 310 309 307 307 309 310 311 312 313 315 318 317 316 318 314 310 312 313 312 315 315 315 314 313 313 314 314 314 313 312 311 312 311 311 313 315 312 312 317 318 316 316 315 314 315 313 313 312 312 311 311 311 310 310 309
318 319 318 317 315 313 311 310 312 311 308 305 303 303 301 300 301 303 307 309 309 310 309 309 310 310 308 307 307 306 306 309 309 311 310 307 308 310 310 311 310 313 317 316 316 316 314 310 309 314 313 312 314 314 315 314 311 311 313 312 312 312 311 312 312 311 311 311 312 311 310 314 315 311 312 314 314 314 314 313 312 311 312 311 310 310 309 307
318 318 318 317 315 313 312 311 312 311 307 304 303 302 300 301 302 304 308 309 309 311 310 309 310 310 309 307 307 307 309 311 309 309 308 307 309 309 311 313 310 313 315 313 314 316 312 309 311 314 314 313 314 314 315 313 311 314 312 310 311 311 311 311 310 309 310 309 311 311 309 312 315 312 312 314 314 313 314 314 313 312 311 310 309 309 307 305
317 317 318 317 316 315 313 312 312 311 308 304 303 301 300 302 301 305 309 307 310 314 311 308 307 308 308 307 307 308 309 311 312 310 307 306 308 308 310 313 313 314 314 313 316 316 312 312 314 314 315 315 314 314 315 312 311 314 311 309 310 309 309 309 308 309 309 310 313 313 310 313 316 315 312 314 313 313 313 312 313 312 310 309 309 307 305 306
317 317 318 317 316 315 313 312 312 312 310 304 302 301 301 302 302 307 310 306 310 316 311 308 307 306 308 307 308 308 307 309 312 309 305 305 308 308 309 311 313 314 312 313 316 315 312 310 311 313 315 315 311 310 312 312 311 311 310 310 310 309 309 308 308 309 309 311 315 315 311 311 315 315 312 314 314 313 312 311 312 311 309 308 307 305 305 307
317 317 317 316 315 314 312 312 312 313 310 304 301 301 301 302 304 308 308 306 313 318 309 308 309 307 307 308 308 309 308 308 308 306 306 307 307 308 308 309 311 312 311 313 315 313 308 304 305 309 310 310 308 308 310 311 310 309 309 310 312 312 309 308 308 307 311 316 315 312 309 308 312 316 312 312 312 312 311 311 312 310 308 307 305 304 306 307
316 317 317 316 315 314 313 312 312 313 309 304 302 301 301 304 307 306 305 306 313 316 309 309 309 307 307 308 309 308 309 309 307 307 309 308 307 308 308 309 310 311 313 315 315 313 308 306 306 307 306 306 307 309 309 308 308 308 308 310 314 315 311 309 308 307 314 321 315 309 309 308 311 315 313 310 310 310 311 311 312 310 307 306 304 304 306 307
316 317 317 317 316 315 314 313 313 312 307 303 301 301 302 305 305 305 306 307 311 313 312 312 310 308 308 309 311 309 309 310 308 309 310 309 308 308 309 311 311 313 316 315 314 314 313 310 308 306 305 305 308 310 310 308 308 308 309 311 314 317 315 314 313 314 318 318 312 308 309 310 311 311 310 309 308 309 311 311 310 309 307 306 304 305 307 306
315 317 317 316 316 315 314 313 312 310 306 302 300 301 304 305 304 305 306 307 311 312 312 313 311 310 309 310 312 309 309 311 309 309 311 311 310 309 310 312 313 316 318 316 315 315 315 311 307 308 308 306 309 313 315 314 310 310 312 312 314 315 314 315 317 318 318 316 310 305 306 310 313 311 310 309 309 309 310 310 309 308 307 305 303 305 307 306
313 315 316 316 315 315 314 313 312 308 304 301 300 302 304 304 305 308 307 307 311 312 311 312 312 311 311 312 312 309 309 311 309 310 313 312 312 313 312 312 313 315 314 313 316 316 318 318 311 310 311 308 309 312 314 314 311 311 311 310 312 313 313 315 317 317 316 316 312 304 307 314 316 315 313 310 309 309 309 309 308 308 307 304 303 305 307 306
311 314 315 315 314 314 314 313 311 307 303 301 301 302 304 304 306 308 308 308 313 314 311 311 311 312 312 312 311 310 311 313 311 311 312 312 312 313 312 312 313 314 312 313 315 314 317 321 312 307 308 307 308 309 308 311 312 310 310 311 313 312 311 314 315 314 311 313 313 308 310 317 317 315 312 310 309 309 309 309 307 307 306 303 303 306 307 306
312 314 314 313 313 313 313 313 310 306 303 300 301 302 303 305 306 307 309 312 314 314 312 311 310 311 313 312 311 310 311 313 312 311 311 310 311 311 312 314 313 313 312 313 315 314 315 318 308 305 307 305 306 308 306 310 313 311 311 313 311 308 308 313 314 310 309 312 314 313 314 317 316 315 312 310 310 310 309 308 305 305 305 302 303 307 306 306
312 313 312 312 313 313 312 312 309 305 302 300 301 303 303 305 306 307 310 312 312 313 312 311 311 312 313 313 312 310 311 312 312 311 312 311 312 313 312 314 314 313 312 312 314 318 319 316 307 305 309 305 303 306 305 305 308 311 313 311 308 307 308 310 312 311 312 315 315 314 318 317 315 315 312 309 311 312 310 308 305 304 304 302 303 306 306 306
310 312 312 312 312 313 312 311 308 304 302 300 301 303 304 304 305 305 307 308 310 312 311 310 311 313 314 315 314 311 310 312 311 311 313 312 314 315 312 314 315 311 310 309 311 316 317 316 308 304 308 306 302 307 309 306 304 307 309 307 307 312 312 309 310 312 314 315 316 317 317 315 316 317 316 314 313 312 308 307 306 306 304 302 303 306 306 306
309 309 310 311 311 312 311 310 307 303 301 301 302 303 304 304 304 304 305 306 308 310 310 310 310 312 314 316 316 312 309 311 311 311 314 313 314 315 312 314 314 309 306 306 309 314 313 314 313 305 305 307 305 308 312 310 304 303 305 304 305 310 312 310 310 311 312 313 315 316 315 316 321 322 320 317 313 310 309 308 308 307 304 302 303 306 306 306
308 308 308 310 311 310 310 309 305 302 301 302 303 303 304 304 303 304 304 305 306 308 309 310 310 310 313 313 315 313 309 310 310 310 313 313 313 315 312 313 313 307 305 305 309 314 311 312 314 306 303 307 309 309 311 312 308 304 305 307 305 305 307 309 309 309 311 312 313 315 315 317 319 318 316 314 312 310 311 311 309 306 303 301 303 306 307 306
306 307 307 309 310 309 308 306 302 300 302 303 303 303 303 303 303 303 304 304 305 306 306 309 310 310 310 311 313 313 310 310 310 310 312 312 313 315 312 311 310 307 306 306 308 311 311 313 315 308 305 309 310 307 305 308 308 306 307 308 308 307 308 311 312 309 309 310 311 313 314 314 314 315 314 312 313 312 309 309 308 304 303 301 303 307 307 306
305 306 307 308 308 308 306 303 300 301 302 303 304 303 303 303 303 303 303 303 304 305 305 306 308 307 308 310 313 312 310 310 310 311 312 311 313 314 311 307 305 305 306 308 308 308 309 312 314 311 308 307 306 301 299 303 305 306 308 309 309 309 310 314 315 312 309 308 307 309 312 314 312 314 315 313 312 310 306 306 305 304 303 301 302 307 308 306
302 304 305 305 305 307 307 303 302 302 302 303 303 303 302 303 303 303 303 303 304 305 305 304 305 306 307 310 311 310 311 311 311 312 311 312 313 310 305 305 304 305 307 309 308 307 307 311 314 312 309 305 301 299 299 301 304 306 308 307 308 310 311 313 312 310 311 310 309 310 313 314 312 313 314 313 310 307 305 304 304 303 303 301 301 306 308 306
299 301 302 303 303 306 306 305 304 303 302 303 303 303 302 302 302 303 304 304 303 305 305 304 305 306 307 310 309 310 312 310 311 312 311 312 312 303 300 304 304 305 308 308 309 308 309 313 315 314 313 311 308 307 305 304 303 305 308 306 306 310 311 309 307 307 310 312 313 313 313 313 313 313 313 312 310 309 307 304 304 303 303 301 301 305 308 307
299 300 301 302 302 302 302 304 304 303 303 303 303 303 303 302 302 302 303 304 303 304 305 304 304 305 307 308 307 309 311 309 311 312 309 311 311 301 299 302 304 305 305 303 306 308 310 314 313 313 313 314 316 318 316 311 305 304 307 306 306 309 308 307 308 308 309 310 312 314 313 312 312 312 311 311 312 313 309 305 304 304 303 302 301 304 307 307
298 300 301 301 301 299 299 301 302 302 304 304 303 304 304 303 303 302 302 303 303 303 304 304 303 303 304 305 305 306 308 309 309 310 309 310 309 302 300 300 301 302 301 301 303 305 309 312 312 313 313 314 317 317 313 310 309 308 309 307 306 307 306 307 309 309 309 310 311 312 311 311 311 310 310 311 313 314 312 307 304 303 303 303 302 302 305 307
298 300 301 301 300 300 299 299 299 301 304 305 304 305 305 304 304 303 302 303 303 303 303 303 303 304 304 304 304 304 306 307 307 307 309 311 307 302 299 299 300 300 299 301 302 304 309 311 311 313 314 314 316 314 308 309 313 313 311 308 306 306 306 306 307 309 311 311 310 311 311 311 311 310 309 310 312 312 313 309 305 304 304 303 302 302 303 306
297 300 301 300 300 301 301 300 299 299 302 304 305 307 306 305 305 305 303 303 303 303 303 303 303 303 304 304 304 304 304 306 306 307 310 310 307 305 302 301 300 300 301 302 302 304 308 310 311 311 310 311 313 311 309 309 310 310 311 311 308 305 305 305 305 308 312 312 310 312 315 313 310 309 309 309 309 309 309 309 306 306 305 304 303 302 302 304
297 298 298 297 298 298 298 299 299 300 300 302 305 307 307 306 305 305 305 303 302 302 303 305 304 303 303 303 304 304 304 305 306 307 309 309 308 309 307 305 303 300 300 302 302 302 305 311 313 309 308 310 310 310 309 308 306 307 309 310 308 306 305 304 304 306 309 311 310 311 312 310 308 308 308 307 307 306 306 306 306 305 305 304 303 302 301 302
296 296 296 295 295 296 297 298 300 301 301 302 304 305 307 307 306 306 305 304 304 303 302 304 305 304 303 303 303 303 304 305 305 307 309 309 308 308 308 309 308 302 300 302 303 302 304 310 313 309 306 308 308 308 308 306 306 306 306 307 308 306 305 304 304 304 305 307 308 307 307 307 306 306 306 305 305 305 305 305 305 305 305 304 303 302 301 301
295 295 294 294 295 296 297 299 300 301 301 301 303 304 306 307 307 307 306 305 306 305 303 303 304 305 304 303 303 303 303 304 305 306 307 307 307 307 307 308 308 305 302 302 303 304 304 307 309 308 307 308 307 307 307 305 305 305 304 305 306 306 306 304 304 304 305 305 306 305 305 306 305 305 306 306 306 306 306 304 304 305 305 304 303 302 302 301
294 294 294 294 294 295 296 298 298 300 302 302 302 303 305 306 306 307 307 306 305 306 305 303 303 304 304 304 303 303 303 303 304 304 304 305 305 305 305 305 305 305 303 301 303 305 304 306 309 308 309 308 305 305 306 306 305 305 304 303 303 304 305 304 304 304 304 305 305 305 306 306 306 306 307 308 309 310 308 305 304 305 304 303 302 302 302 301
Wind_Speed
10 10 10 10 11 11 11 11 11 11 10 10 10 10 10 9 9 9 9 9 10 11 12 12 12 11 11 11 11 11 10 10 11 8 6 7 9 8 8 9 8 8 9 8 7 6 4 4 4 7 6 3 4 4 4 3 3 3 2 3 4 3 1 2 2 3 2 3 2 3 7 5 5 8 9 9 8 13 19 18 18 18 18 18 15 15 17 18
10 10 11 11 11 11 11 11 11 11 11 11 11 10 10 10 10 9 9 9 9 10 11 12 12 12 11 11 12 11 11 11 10 6 6 7 8 8 7 8 9 9 9 8 7 4 2 2 3 7 4 4 6 4 4 3 3 3 2 3 3 3 2 1 2 2 2 3 4 6 7 6 6 8 9 8 7 10 13 16 17 18 18 15 13 14 16 16
11 11 11 11 11 11 12 12 12 11 11 11 11 11 10 10 10 10 10 9 9 10 11 12 12 12 12 12 12 12 11 12 9 5 5 7 8 8 7 8 9 9 8 8 7 4 2 2 3 4 4 6 5 3 3 3 3 2 1 3 2 3 4 2 4 3 2 3 4 6 7 8 9 10 9 7 9 9 10 15 13 11 10 7 8 10 11 11
12 12 12 12 12 12 12 12 12 11 11 11 11 11 11 11 10 10 10 10 10 10 10 11 12 12 12 12 12 12 13 11 5 3 3 7 8 8 7 7 8 9 8 7 5 3 3 2 2 3 5 7 5 4 3 4 2 1 1 4 2 4 3 4 5 2 1 2 4 7 8 9 9 8 8 7 8 7 10 12 5 6 9 7 9 10 11 12
13 13 13 13 13 13 13 12 12 12 11 11 11 11 11 11 11 11 10 10 10 10 11 11 11 11 11 12 12 11 11 6 3 2 5 7 8 8 7 7 7 8 8 6 4 3 5 5 4 4 6 5 4 4 2 3 2 2 7 9 5 4 2 3 4 1 1 3 5 6 6 7 8 9 12 10 8 10 11 8 6 9 13 15 18 18 19 20
14 14 14 14 13 13 13 12 12 12 12 12 11 11 11 11 11 11 11 10 10 10 11 11 11 11 11 11 12 11 7 3 4 6 9 9 8 8 8 7 6 7 7 6 5 5 6 5 5 6 6 5 4 4 2 2 3 2 7 9 5 4 4 3 3 3 4 4 5 6 7 8 8 11 14 16 19 23 21 17 17 16 16 18 20 21 22 20
15 15 15 15 14 14 13 13 13 13 13 13 12 12 11 11 11 12 11 10 10 10 11 11 11 11 11 11 11 10 8 10 11 11 11 10 9 9 8 7 6 7 6 5 5 3 4 4 5 7 6 5 4 3 3 2 4 2 4 5 4 4 6 8 7 7 7 6 9 8 9 9 8 9 10 18 28 28 24 22 22 21 18 15 15 16 16 15
17 16 16 16 15 15 14 14 14 14 14 14 14 13 12 12 12 12 11 11 10 10 11 11 10 11 11 10 10 10 11 13 13 11 11 10 9 9 9 8 6 6 5 5 4 2 2 3 4 5 5 3 1 2 2 2 5 6 5 5 4 6 8 11 10 9 9 10 10 8 10 13 15 13 12 26 33 25 22 21 20 20 18 15 14 14 14 15
18 18 17 16 17 16 15 15 15 14 14 14 14 14 14 13 12 12 12 11 11 10 11 10 10 10 11 10 7 7 11 10 10 11 11 10 10 10 10 9 8 7 5 5 4 1 0 3 3 2 3 3 1 1 3 1 3 5 5 7 6 10 11 11 10 9 9 10 7 6 11 15 17 13 15 30 29 18 16 16 17 18 17 17 16 15 15 17
19 19 18 17 17 17 17 16 16 16 15 15 15 15 14 14 13 13 12 12 11 11 11 10 10 10 11 10 4 4 9 9 9 11 11 11 10 10 10 9 8 7 6 5 4 2 2 4 5 3 4 4 4 3 4 2 2 3 8 11 12 17 16 11 9 8 7 8 9 8 9 16 16 6 10 20 12 7 11 12 16 16 16 16 16 16 15 16
21 20 19 18 17 18 18 18 17 16 16 16 15 15 15 14 14 13 13 12 12 11 11 11 10 10 11 10 6 7 11 12 11 12 12 12 11 11 11 9 9 8 7 5 4 3 3 4 5 3 2 3 3 3 5 4 5 4 7 11 14 18 16 12 9 7 6 5 7 9 12 18 13 7 15 21 10 8 10 10 12 13 14 16 16 16 16 16
21 21 20 19 18 18 18 19 18 17 17 17 16 16 15 14 14 14 14 13 12 11 11 11 10 11 11 12 15 16 16 17 16 16 15 14 13 11 10 9 9 8 8 6 5 4 3 4 3 4 2 4 3 2 3 4 5 4 3 5 9 9 8 11 10 7 6 2 3 6 10 11 7 11 21 19 12 12 10 10 11 13 15 15 15 16 15 16
21 21 21 20 19 19 18 19 19 19 18 17 17 16 15 15 14 14 14 13 13 12 11 11 10 11 11 13 18 17 17 18 18 17 17 15 13 11 10 9 8 8 8 7 6 4 3 3 3 5 4 4 3 1 3 3 3 3 2 3 6 4 3 7 9 6 4 2 2 3 5 7 5 16 19 10 12 14 11 12 12 14 16 14 15 15 14 14
22 21 20 20 20 20 19 19 19 20 19 18 18 16 16 15 15 14 14 14 13 12 12 12 11 11 11 14 16 17 18 19 18 18 16 14 13 12 9 8 7 8 8 7 6 4 3 3 3 5 5 5 3 4 4 2 3 2 2 2 3 3 1 3 7 6 3 3 1 3 2 8 7 10 14 11 14 14 12 14 13 14 16 14 15 15 15 14
24 22 21 21 21 21 20 19 19 20 19 19 18 17 16 15 15 15 14 14 14 13 12 12 11 10 12 17 17 16 17 18 18 18 15 13 12 10 9 7 7 8 7 7 6 4 2 1 2 3 3 5 4 4 3 2 3 2 1 2 2 3 1 2 5 5 2 2 4 3 2 9 10 6 6 12 14 13 15 17 15 15 16 15 15 15 15 14
24 24 23 23 22 22 21 19 19 19 19 19 19 18 17 16 15 15 15 15 14 13 12 11 10 8 9 14 15 15 16 16 17 16 13 12 11 9 9 8 7 7 6 6 5 3 2 1 3 4 3 3 2 2 4 3 2 3 3 3 3 3 2 2 2 2 2 1 4 5 3 7 9 6 5 8 12 16 18 19 17 16 16 16 16 16 16 15
24 24 24 24 23 23 23 21 19 19 19 20 20 18 17 17 16 15 15 15 15 14 12 10 8 8 11 14 13 14 16 16 15 14 11 11 11 9 8 8 6 6 5 6 5 3 2 1 2 3 3 3 2 1 2 4 2 1 2 3 5 6 5 3 2 1 2 2 3 6 5 11 14 14 20 22 22 22 21 20 18 16 17 18 17 17 17 16
24 24 24 24 23 23 23 23 20 19 20 20 19 17 16 16 16 15 15 16 15 12 11 11 6 3 12 17 15 14 15 14 13 13 11 11 10 8 7 6 5 4 5 6 3 2 1 2 2 1 2 3 3 3 2 2 1 2 4 3 5 6 6 6 3 1 1 2 5 6 7 14 17 17 22 25 23 22 20 19 18 16 16 17 17 17 16 15
25 24 24 24 24 23 23 23 22 20 20 20 17 16 16 15 15 16 17 17 14 8 6 10 13 6 4 9 12 13 12 11 10 10 12 12 9 8 7 5 3 1 2 3 2 4 2 2 3 2 3 3 3 3 2 1 1 2 4 3 6 6 7 8 2 2 2 2 6 8 10 13 16 16 16 19 20 19 20 20 17 15 16 18 18 17 16 16
26 25 24 23 24 23 22 21 21 21 21 20 16 13 11 10 10 9 13 19 21 20 16 13 17 16 10 8 11 11 10 9 8 10 11 11 8 6 5 4 2 1 3 2 3 4 3 2 4 4 2 4 4 3 3 2 2 2 3 4 6 6 8 8 2 1 1 1 6 8 10 14 17 17 14 18 18 16 17 15 14 14 17 20 19 18 17 16
27 25 24 23 23 23 22 21 20 19 20 20 16 10 5 4 5 5 7 15 22 24 25 23 22 24 21 18 17 13 10 9 11 13 12 10 9 5 5 7 3 2 5 4 3 2 2 3 4 2 3 5 5 4 4 2 0 2 3 5 6 5 8 6 1 2 2 1 5 7 10 16 18 16 15 16 13 11 13 12 13 16 19 21 20 19 17 14
29 26 24 23 22 22 21 21 21 19 19 19 17 12 9 6 6 7 9 13 21 24 24 25 25 28 28 26 24 17 12 9 11 16 15 12 11 7 7 8 4 2 4 4 2 1 3 4 2 4 6 6 5 4 3 1 1 3 4 3 5 4 5 4 2 3 2 0 5 6 9 15 18 17 15 14 11 11 14 13 14 18 19 20 18 15 13 11
32 28 24 23 21 21 20 21 22 20 18 18 18 16 14 10 6 9 10 11 19 26 27 27 29 32 31 30 29 22 17 12 12 17 17 15 14 12 10 6 5 4 4 5 4 4 4 3 4 5 5 6 4 3 3 1 2 4 4 3 5 3 3 2 1 2 3 5 8 8 9 13 16 13 12 14 13 10 12 12 14 16 16 16 15 14 13 11
35 31 26 23 20 19 18 20 23 21 18 18 19 17 15 11 6 9 11 9 13 18 26 30 30 34 33 30 28 24 22 16 12 15 19 19 15 11 9 6 5 5 5 6 7 7 5 2 6 5 4 3 3 4 4 2 2 4 7 5 5 3 2 3 4 6 7 7 6 6 7 8 8 7 6 8 8 6 8 10 13 15 16 17 17 14 11 8
36 34 29 23 20 17 16 20 23 21 18 17 17 14 12 9 5 6 8 7 9 8 15 22 24 28 31 29 24 20 18 15 14 14 17 21 18 10 5 6 6 5 7 7 6 7 4 3 6 5 3 2 3 4 5 4 2 3 4 2 1 4 4 5 7 7 6 4 2 2 4 6 3 4 5 3 6 5 8 9 11 16 18 16 12 7 5 9
38 37 32 27 21 16 16 20 21 19 17 16 14 11 9 8 4 3 3 4 8 4 7 13 14 14 19 22 21 16 6 9 16 17 17 22 22 12 3 5 5 3 4 5 3 3 1 3 3 3 4 4 3 4 4 6 1 3 2 2 4 3 4 5 5 4 3 4 5 1 1 5 5 6 8 5 7 7 8 8 11 14 11 6 2 4 9 14
37 38 36 31 24 20 19 18 17 17 13 12 11 9 9 9 6 2 3 4 8 5 9 9 9 10 13 17 23 16 1 6 13 15 19 21 21 14 5 5 4 2 3 3 1 1 3 4 2 2 4 4 4 4 4 8 4 2 2 2 3 3 4 3 3 1 3 6 7 4 4 4 5 7 7 6 7 6 6 6 6 4 3 4 5 9 12 15
32 37 38 35 30 25 22 19 19 18 14 10 7 9 11 11 9 4 3 4 4 5 7 5 6 10 13 19 23 12 3 10 9 9 19 20 18 11 6 4 3 3 5 4 3 1 3 5 5 6 4 3 5 3 6 9 4 1 2 2 1 1 2 0 1 4 4 5 5 4 4 2 5 7 5 4 5 6 4 2 1 3 5 4 6 10 12 14
27 33 39 38 33 27 22 22 23 20 15 10 6 9 13 13 8 5 2 4 2 4 3 6 7 8 14 17 14 5 5 5 2 7 16 16 15 8 2 5 2 3 2 2 3 0 2 3 5 7 5 4 4 2 3 6 3 2 1 1 1 2 2 2 2 3 3 2 3 4 3 2 5 6 4 2 3 4 2 1 1 3 5 5 7 10 12 14
24 29 38 38 33 28 24 26 25 19 12 10 9 9 14 12 6 3 4 7 1 4 3 6 6 8 14 12 6 4 3 2 5 12 11 8 11 5 1 2 2 2 1 1 1 1 4 3 1 3 3 3 3 2 2 2 2 2 1 3 2 2 3 2 2 1 2 2 3 2 1 0 3 6 4 3 4 4 3 3 1 3 5 7 8 11 13 13
24 28 35 38 36 32 29 30 26 16 9 11 11 11 12 7 4 4 9 4 2 1 3 3 3 8 14 10 5 6 4 3 9 12 5 4 6 4 3 3 2 1 1 2 3 2 3 2 0 2 3 3 3 2 2 3 4 3 1 2 3 1 2 2 0 2 1 3 2 3 4 2 2 6 4 3 4 5 3 1 2 3 5 7 9 12 12 11
24 26 30 35 38 36 32 31 23 12 10 14 14 14 8 3 3 11 9 2 2 3 2 2 4 6 9 6 3 6 5 4 8 8 4 5 5 5 6 5 5 3 2 5 3 2 1 2 1 2 2 5 3 2 2 2 3 3 2 1 1 1 1 1 1 1 2 3 2 3 6 2 6 8 9 10 6 2 4 2 1 2 4 7 10 12 10 10
24 25 29 34 38 37 34 32 22 10 13 17 17 12 4 4 10 13 10 4 2 1 3 3 2 3 6 5 2 5 4 2 7 7 5 6 5 6 7 7 6 3 2 5 4 2 1 3 2 2 1 6 7 3 2 2 4 5 3 3 3 0 2 3 3 2 2 3 3 2 4 3 6 7 10 13 7 3 5 4 3 2 4 7 9 11 9 9
23 25 32 37 38 36 34 34 24 11 16 21 15 6 5 10 11 5 7 10 5 3 3 3 4 3 4 3 1 6 4 1 7 6 4 6 5 5 7 9 9 2 2 2 3 5 4 3 3 3 1 7 7 2 2 3 4 4 3 4 3 2 2 3 2 3 3 3 3 2 2 4 4 4 6 6 4 5 6 6 4 4 4 6 10 10 7 7
20 25 34 38 38 37 36 34 21 11 20 22 9 4 9 12 9 2 4 7 3 1 1 3 4 2 4 3 1 6 3 2 6 5 3 6 5 5 6 8 11 7 3 3 2 4 4 3 1 0 1 6 4 1 1 3 3 2 3 5 2 3 3 2 3 3 1 2 2 2 3 5 4 5 4 5 6 6 7 6 4 3 4 6 11 9 4 5
19 26 36 40 41 38 34 31 21 17 25 21 7 6 11 9 6 4 2 1 2 3 4 2 2 2 4 3 3 6 3 1 6 5 3 5 4 5 6 5 10 11 7 5 3 2 2 2 1 1 1 1 2 2 1 2 2 2 2 2 3 3 4 2 3 2 3 0 3 4 5 5 3 6 4 3 4 4 5 5 4 3 3 7 10 8 2 3
20 29 38 42 43 38 33 31 24 23 27 19 7 9 9 8 8 6 2 4 2 4 6 3 4 6 6 3 3 7 4 2 4 4 3 4 4 7 9 5 8 14 13 6 1 2 4 1 3 2 0 1 2 2 2 2 1 3 2 4 2 2 3 3 1 2 0 3 4 4 7 6 2 4 3 2 2 5 6 4 4 4 3 5 10 7 1 1
21 31 41 43 45 41 34 32 27 28 25 13 8 11 6 8 13 14 13 7 4 1 2 5 5 6 6 5 4 6 6 3 4 4 4 4 4 7 11 6 4 10 13 7 1 1 4 2 3 1 1 2 0 1 0 2 2 3 2 3 1 2 1 2 1 1 2 4 4 4 7 6 3 4 4 5 7 7 7 4 3 5 5 6 10 7 3 1
20 25 32 39 46 42 35 33 32 31 20 8 9 11 5 8 16 22 22 11 4 3 5 5 5 4 5 5 3 5 7 6 6 5 4 4 4 6 10 6 2 4 7 8 5 1 3 3 3 2 1 2 1 2 3 1 2 3 1 1 1 1 3 3 2 1 1 3 4 4 5 4 6 6 6 9 10 8 7 5 6 6 7 9 11 7 4 3
19 15 16 30 45 42 37 37 33 25 12 7 11 8 4 6 14 25 29 17 5 4 5 4 5 5 4 3 2 4 6 5 6 5 4 4 4 3 5 4 4 3 2 3 2 0 2 3 3 1 2 2 3 3 5 6 5 3 2 2 2 1 2 1 1 2 3 2 3 3 6 7 6 5 6 9 9 8 8 6 7 8 9 10 11 8 6 5
16 10 9 24 39 42 42 34 20 13 6 5 9 8 7 6 6 16 28 23 9 5 4 4 5 5 3 3 2 4 5 5 6 5 4 4 4 3 3 4 8 9 5 3 2 2 3 3 3 3 3 4 3 2 1 3 5 5 5 6 6 4 4 1 2 1 2 2 2 1 5 10 6 4 5 7 7 7 8 7 6 9 11 10 10 9 7 6
12 8 9 22 37 45 41 20 6 9 6 7 13 10 7 8 6 9 14 13 7 4 3 2 4 6 6 5 3 3 5 5 5 6 5 6 5 2 1 4 12 14 8 3 2 2 1 3 3 3 3 3 2 1 1 1 1 2 3 4 5 5 5 4 3 3 1 1 1 3 2 10 5 2 3 6 7 8 9 9 8 10 12 10 10 10 9 7
13 12 16 19 39 49 34 10 4 8 5 9 17 12 8 8 7 10 11 9 7 4 4 5 6 8 8 5 2 3 4 4 6 7 5 5 4 2 4 5 14 13 5 1 1 2 1 2 3 2 1 1 1 1 1 2 1 1 3 3 4 4 4 4 5 4 2 3 3 3 4 9 4 1 3 7 8 8 9 11 10 11 11 10 10 12 10 8
19 19 20 19 41 43 24 8 7 9 7 9 11 11 13 10 8 12 13 12 12 5 3 8 9 8 7 4 1 4 5 5 6 8 6 4 3 1 3 6 12 7 1 1 3 6 5 2 4 4 1 0 1 1 2 2 1 3 3 4 5 4 6 4 2 3 1 5 8 4 6 9 3 1 3 5 7 6 8 13 14 12 12 11 11 13 12 10
17 14 12 23 41 32 13 5 8 10 12 12 8 10 13 9 12 21 18 13 16 11 4 7 6 3 3 3 3 5 7 6 6 4 4 2 1 2 2 4 6 1 3 3 2 5 6 3 4 7 5 6 4 3 3 3 3 3 3 7 8 8 9 5 3 3 3 6 8 6 8 10 6 2 2 3 5 6 8 12 14 13 12 11 12 15 15 13
9 6 5 16 32 28 18 12 8 4 11 14 9 10 14 9 8 19 20 12 15 19 13 9 5 4 5 7 8 9 9 7 5 3 3 3 0 3 3 2 3 2 3 4 4 0 1 3 5 7 7 8 6 4 3 5 6 4 6 10 10 10 11 7 3 4 5 4 5 10 10 11 16 14 8 5 7 7 6 9 12 14 14 13 14 16 16 14
5 5 3 2 14 18 16 15 9 2 9 13 8 7 16 16 6 9 18 15 16 18 11 6 7 8 10 12 12 12 12 10 6 4 2 3 2 2 2 1 2 2 3 3 3 1 1 3 6 7 8 6 4 4 4 5 6 7 8 10 11 10 11 11 10 8 6 6 8 12 8 10 20 20 14 9 8 7 5 7 11 14 16 16 14 15 16 15
5 8 9 7 3 5 7 12 12 8 10 13 10 9 16 21 14 9 14 14 14 15 10 6 13 18 18 16 12 12 14 14 11 6 3 3 3 1 0 1 2 3 2 2 1 2 2 4 4 5 9 7 2 5 6 4 3 6 9 11 12 13 14 16 16 11 8 8 12 9 7 11 18 18 17 15 11 8 7 8 9 10 13 15 15 16 17 17
7 8 12 12 7 7 14 17 16 12 11 11 9 11 14 20 21 16 11 7 7 13 15 12 16 21 22 19 14 13 13 13 13 9 5 4 5 4 2 1 4 5 3 0 1 1 2 2 2 3 6 9 5 5 6 6 5 6 8 11 12 15 18 18 17 14 12 13 16 12 9 15 19 19 20 21 19 15 13 14 13 12 13 14 16 18 19 19
7 5 10 13 8 10 18 17 12 7 8 10 9 9 10 15 19 16 11 10 8 10 15 18 19 19 21 21 19 19 19 17 16 11 7 6 5 3 4 3 4 5 4 3 1 1 2 1 1 3 3 6 7 7 6 7 8 9 10 10 11 13 14 14 14 12 9 13 18 15 12 16 20 20 17 20 24 19 14 15 15 15 15 15 17 18 19 19
10 9 12 12 6 7 11 10 7 6 6 8 9 8 8 13 17 13 12 17 18 11 14 22 25 17 16 20 20 23 27 25 18 12 11 13 10 8 7 5 8 8 6 5 4 2 3 2 1 3 3 5 4 7 6 2 6 12 12 11 13 13 12 13 13 12 11 14 15 11 9 14 20 16 9 11 15 12 9 12 14 15 15 16 18 19 19 20
12 13 12 8 6 7 9 7 6 8 5 5 10 12 12 15 15 13 12 15 20 22 22 25 24 15 11 16 24 33 39 35 26 21 16 16 15 12 11 9 11 11 8 6 4 3 5 4 2 3 4 3 1 3 2 3 7 13 11 14 18 17 13 13 13 14 16 14 10 9 12 17 15 10 8 9 9 7 9 12 15 16 16 17 18 18 19 20
Wind_Direction
266 267 269 272 276 276 276 276 274 272 272 273 277 282 287 292 296 300 305 309 314 316 317 318 324 328 330 328 324 323 323 327 326 312 289 305 318 318 320 325 329 329 333 336 338 9 27 358 323 312 318 277 267 283 281 294 296 282 272 249 257 279 31 42 10 30 338 314 324 345 1 342 292 310 303 298 278 268 279 274 266 257 249 251 250 254 264 270
267 267 268 271 273 276 278 278 278 277 274 274 275 279 283 288 292 296 300 304 308 311 313 314 320 325 329 328 324 323 320 323 323 291 265 303 320 312 312 323 330 330 332 339 342 354 72 147 270 304 315 258 250 256 265 283 296 265 279 272 268 344 26 357 11 30 354 324 333 327 324 317 297 302 303 293 270 274 287 281 273 264 252 241 236 251 264 269
266 267 268 271 273 277 279 280 282 280 277 275 275 278 281 283 287 292 297 300 302 305 308 311 317 323 327 328 325 323 321 322 317 262 255 310 318 307 311 320 329 332 330 338 348 342 304 234 258 300 308 272 238 214 243 243 267 261 286 274 266 4 344 21 55 60 35 0 336 312 304 303 288 286 287 278 281 277 265 269 272 273 265 221 226 257 265 262
268 267 267 271 274 277 280 282 283 282 280 278 277 277 278 280 283 286 290 294 297 299 303 307 312 319 325 327 326 324 324 320 287 221 277 313 316 312 313 317 326 332 332 338 342 344 353 358 323 307 290 270 215 196 233 213 249 347 255 272 348 3 337 55 69 86 97 359 313 295 296 289 282 283 265 261 293 278 242 255 272 304 302 277 268 271 265 265
270 268 266 270 273 276 279 282 282 283 282 279 277 275 276 278 278 281 283 287 291 293 297 303 309 315 321 324 325 324 327 325 211 212 316 313 314 319 314 312 325 332 332 333 344 0 356 357 333 281 260 253 194 192 216 190 240 298 251 261 313 340 322 51 66 88 286 304 288 283 282 282 289 279 257 244 249 251 241 256 292 296 288 277 272 270 268 268
271 269 268 269 272 274 277 281 283 283 282 280 278 275 274 276 276 277 277 281 285 288 292 298 305 309 316 321 322 319 316 293 251 281 305 307 310 318 315 307 316 329 334 339 358 3 330 321 289 258 248 247 206 184 144 172 228 265 252 257 294 307 278 310 358 327 313 296 264 264 272 285 297 284 267 244 238 253 260 265 274 279 279 272 265 263 264 264
270 269 268 268 269 272 275 280 282 282 282 281 279 276 274 274 275 274 274 278 279 283 287 293 301 304 309 316 321 312 279 267 275 284 295 299 304 310 313 311 313 324 343 355 349 337 308 291 272 271 269 264 225 181 133 194 220 223 272 273 281 274 258 276 295 297 300 279 263 268 275 272 263 278 286 259 253 259 266 267 266 269 269 262 258 258 259 259
270 269 267 265 265 269 273 278 282 282 281 282 282 279 276 274 274 274 273 275 275 279 282 287 296 298 302 312 326 311 273 268 277 284 288 292 300 305 310 313 319 327 346 357 338 336 345 316 297 294 281 271 200 169 152 242 223 206 257 296 289 275 269 275 278 277 284 280 275 265 259 259 254 263 276 270 272 274 270 267 262 262 259 250 254 259 260 261
271 270 268 265 263 266 269 274 279 281 281 281 282 281 279 276 274 274 272 272 274 275 278 284 288 293 296 304 325 303 275 277 280 279 282 285 294 301 308 316 322 333 346 347 337 338 332 294 287 283 287 295 304 197 152 200 231 210 271 318 305 281 282 281 269 265 276 273 266 251 252 262 265 267 266 268 277 285 269 255 246 249 253 255 258 258 261 263
272 272 272 270 266 266 267 270 275 279 281 280 281 282 281 279 277 276 272 271 272 273 277 280 283 287 289 294 311 283 278 284 282 280 282 281 288 300 305 311 319 329 336 330 330 302 229 267 264 248 275 278 275 236 161 170 263 276 303 314 295 279 277 270 261 256 262 266 252 249 267 267 262 251 262 269 272 260 244 230 233 242 253 260 262 263 263 261
273 273 272 273 273 270 267 268 271 274 278 281 283 283 283 282 280 278 274 271 271 274 277 277 282 282 281 280 248 246 277 281 281 286 285 279 284 298 303 307 314 321 323 318 325 304 252 275 263 231 261 274 276 221 189 227 262 293 317 313 288 273 265 249 245 238 231 262 248 249 276 271 256 219 250 261 251 228 228 219 232 245 254 260 262 263 261 258
279 274 271 273 275 274 270 267 267 270 274 279 282 284 285 283 281 280 278 275 274 274 276 278 280 279 280 272 253 255 274 276 280 285 281 279 279 289 299 303 306 312 317 313 316 306 281 294 236 203 266 289 291 184 197 247 255 289 316 309 288 270 256 232 219 209 198 208 260 270 289 275 220 214 249 256 237 228 227 229 244 255 257 259 261 259 256 253
292 282 278 277 276 276 274 269 267 267 269 273 277 281 284 283 281 280 278 276 276 276 277 279 280 282 282 270 265 270 275 273 277 279 276 274 272 281 293 296 300 307 311 307 311 306 290 303 222 222 271 275 282 272 277 267 238 279 226 236 291 283 251 204 183 177 175 184 271 325 315 293 220 223 244 239 213 218 220 237 253 265 263 258 258 253 248 245
307 298 290 283 278 276 275 271 267 265 266 268 271 276 279 281 279 278 278 276 275 274 274 276 280 284 275 268 274 276 272 272 271 269 270 267 266 277 283 287 297 302 307 305 310 307 294 308 240 244 255 239 271 297 287 230 184 251 195 198 261 257 265 161 157 156 157 181 192 53 282 279 291 253 241 213 206 213 225 246 260 268 266 258 253 246 242 240
314 310 301 290 284 279 276 272 267 265 264 263 265 270 274 277 276 274 274 272 271 271 272 275 279 283 276 273 276 271 266 265 262 262 262 258 261 274 278 285 299 305 310 305 305 308 301 284 219 252 252 239 269 292 276 207 186 210 231 275 240 220 260 194 178 159 152 183 166 137 255 274 297 302 224 197 207 221 234 252 261 263 266 258 247 239 240 241
315 313 308 299 291 284 279 272 269 267 264 262 262 264 267 270 272 271 271 271 271 269 269 273 276 279 280 277 272 264 260 256 255 260 257 249 248 260 276 291 306 309 308 307 306 299 297 241 221 249 248 246 250 249 282 271 226 197 208 273 292 280 288 214 209 166 148 149 181 193 243 283 285 292 265 231 239 248 248 255 258 259 264 257 243 237 236 236
312 313 311 305 296 288 282 276 271 269 264 261 260 260 262 266 268 269 267 267 266 265 266 267 275 281 266 263 265 259 258 256 256 256 248 239 238 247 268 281 299 309 311 316 306 277 277 247 238 249 223 238 269 227 315 303 273 258 237 272 292 298 310 286 277 292 147 154 219 217 228 262 269 278 282 276 271 266 259 261 261 257 258 251 240 235 231 229
305 309 311 309 303 294 287 283 277 272 267 261 261 260 259 263 267 267 265 263 262 265 268 249 223 297 265 247 243 249 257 257 253 250 236 228 234 244 254 265 286 307 321 316 293 193 182 219 218 268 223 211 234 201 198 264 245 299 302 305 304 306 300 283 271 265 207 193 245 260 259 264 269 275 275 273 273 266 260 264 262 254 251 246 234 229 229 230
299 303 307 309 309 302 294 288 283 279 272 263 264 264 260 266 271 269 263 254 240 237 258 221 194 194 267 238 230 240 255 255 246 238 227 225 233 238 239 248 263 264 307 302 196 171 182 211 204 254 251 185 186 198 187 124 73 292 296 292 290 293 281 279 275 181 238 267 263 265 266 271 278 280 276 277 276 265 261 263 253 243 244 242 236 233 234 236
292 297 301 305 307 306 300 294 288 284 278 271 269 267 269 282 282 272 258 244 239 243 247 233 218 225 247 260 247 240 242 241 233 226 224 226 225 229 227 211 200 196 231 225 161 182 195 234 233 234 208 133 113 77 79 70 44 309 300 272 265 271 275 280 291 164 109 301 259 260 273 279 281 281 281 283 278 262 257 254 237 231 236 237 236 236 238 243
284 290 295 299 303 304 301 298 294 287 282 277 271 262 259 289 281 280 284 266 261 261 256 252 246 242 248 256 255 247 235 229 228 229 229 221 213 214 196 181 175 198 208 192 123 149 184 242 243 204 116 114 108 85 77 88 90 262 255 271 272 259 268 281 90 143 101 58 261 269 281 281 281 281 284 283 275 255 246 235 227 229 229 231 233 235 240 247
278 281 287 293 296 300 298 299 299 290 282 277 270 252 228 236 263 278 300 285 274 271 261 255 249 245 247 247 249 245 228 220 222 227 224 208 200 194 176 177 201 213 174 160 125 164 221 232 190 117 109 103 97 92 84 159 228 238 233 270 277 258 278 301 78 115 112 139 266 283 289 283 282 281 281 276 260 244 240 229 227 230 228 229 231 237 247 259
274 275 279 284 289 295 295 296 298 292 285 277 268 254 238 240 263 286 294 281 277 272 257 248 243 240 239 240 244 236 219 222 223 225 222 204 195 189 181 184 213 217 173 175 195 221 239 214 146 130 132 116 109 129 128 203 222 220 215 238 265 291 352 290 356 18 310 271 271 289 290 281 281 280 275 260 240 225 225 227 234 236 236 238 243 252 260 271
272 270 271 275 280 287 290 291 291 292 292 280 268 258 251 248 261 303 302 278 275 266 252 249 243 238 235 237 242 229 218 226 221 221 215 198 187 183 194 202 209 225 215 196 205 230 246 151 138 145 157 145 142 159 167 210 249 221 210 220 261 315 355 266 315 336 303 279 275 294 292 276 265 258 259 232 203 190 201 219 238 242 246 250 253 256 257 273
271 269 266 266 270 275 279 280 282 290 292 279 268 260 253 244 251 321 321 285 267 245 242 241 233 233 230 231 233 217 213 222 218 217 204 192 183 168 183 194 193 230 220 195 201 237 249 142 156 161 157 175 175 182 184 190 268 268 216 203 341 6 342 302 332 339 319 311 293 339 321 294 265 251 275 173 154 196 203 207 231 238 244 247 248 256 277 300
270 268 263 259 259 259 260 267 278 289 289 280 268 252 239 221 210 349 4 295 269 191 172 204 210 217 215 213 203 184 197 222 213 212 196 191 188 175 161 177 183 235 196 164 173 246 217 141 184 174 154 161 181 239 209 164 145 297 262 35 39 9 321 314 350 0 327 302 274 239 224 284 304 290 275 190 176 213 199 200 223 228 241 253 277 324 321 318
268 267 263 255 250 246 246 256 274 281 277 278 263 227 212 195 169 60 46 292 265 163 138 173 181 181 188 187 174 162 161 171 175 197 191 189 190 185 194 173 157 213 180 122 149 238 128 138 186 172 159 159 178 242 201 157 150 226 227 42 37 334 314 332 4 266 260 300 288 230 184 258 295 279 256 173 178 223 198 200 227 240 334 5 344 325 321 321
266 266 262 254 250 248 245 253 268 272 265 269 254 204 189 180 168 123 76 285 270 114 122 154 155 163 162 166 168 158 121 141 139 187 184 182 186 185 218 214 149 175 183 167 196 228 110 162 188 164 156 185 193 211 171 160 164 167 141 81 84 358 345 355 284 249 266 324 303 221 179 236 272 269 264 155 185 229 208 197 283 15 25 10 321 318 320 320
266 264 261 255 251 248 244 249 258 267 265 255 238 198 177 166 152 102 65 254 223 83 109 145 141 151 144 154 179 170 116 131 100 163 165 175 182 172 230 229 157 125 171 201 206 277 60 170 181 155 158 205 192 161 148 160 165 146 108 330 202 157 142 179 228 270 301 315 267 223 184 242 272 267 263 181 196 224 237 267 313 21 16 346 320 321 322 323
266 262 258 252 244 238 236 242 250 263 260 229 223 197 164 152 123 105 235 241 204 61 90 129 132 151 147 147 190 205 154 88 105 137 144 169 180 173 172 170 94 102 132 300 224 111 81 91 132 168 173 178 151 102 52 75 87 85 14 320 280 177 135 155 221 297 344 278 245 242 235 329 298 274 244 192 181 194 225 253 270 1 347 326 321 323 323 326
265 259 255 249 242 238 236 238 248 260 236 204 207 187 162 141 85 192 223 248 3 58 105 125 140 151 160 160 174 193 179 111 137 147 145 157 167 185 187 134 80 99 178 249 224 121 99 97 189 204 165 132 116 104 59 48 65 78 55 355 346 346 83 62 291 67 5 260 254 314 327 3 254 266 255 204 171 162 164 292 300 316 324 318 319 321 320 325
262 257 254 251 247 243 239 241 250 248 206 190 188 184 172 142 201 219 223 41 19 220 116 133 176 167 183 188 162 177 173 145 161 171 169 161 168 191 201 186 153 147 226 216 202 99 156 216 166 119 172 180 165 132 119 58 90 126 152 117 46 338 344 342 273 183 206 247 265 322 335 308 238 251 257 266 269 132 110 114 219 275 310 312 314 315 316 329
260 256 249 249 248 245 241 242 245 225 188 181 180 184 171 197 217 222 227 255 290 261 47 73 143 153 181 192 165 172 186 170 166 183 188 172 186 204 218 225 193 167 205 178 152 140 253 304 174 143 220 203 194 164 156 179 166 169 167 156 157 132 308 278 272 254 238 267 267 307 339 282 269 269 246 250 253 125 118 159 191 270 293 298 309 312 314 333
255 256 245 241 244 246 243 239 236 214 180 175 176 175 172 218 228 208 217 243 277 6 39 80 100 118 181 214 188 161 182 228 163 179 198 171 189 208 209 224 217 189 82 145 168 179 209 289 202 179 155 179 190 194 170 141 145 175 147 116 132 140 195 240 267 265 270 297 284 309 322 222 240 267 215 192 155 135 150 183 215 258 255 283 307 306 311 336
249 254 242 232 230 233 236 234 226 200 179 169 163 185 192 217 228 184 218 234 250 356 78 108 112 130 214 245 230 178 197 237 167 171 201 187 202 203 185 205 208 193 153 177 212 182 198 241 199 81 132 162 170 215 156 96 111 176 98 88 141 180 174 218 277 270 255 339 284 245 249 223 221 267 239 156 150 154 162 193 221 229 233 294 309 299 307 340
248 241 230 225 223 227 232 228 213 191 179 161 138 210 210 224 220 202 224 214 204 165 126 133 155 163 226 220 214 218 216 138 166 173 208 213 233 220 200 198 190 190 188 178 191 175 169 234 185 123 116 118 8 342 47 73 136 150 98 139 207 169 122 126 292 317 95 90 267 223 258 286 300 298 293 141 156 173 181 201 186 176 247 292 293 282 288 349
251 232 219 217 221 226 231 223 204 183 172 158 167 212 215 240 235 238 306 16 330 170 147 212 199 170 211 216 202 211 196 128 178 184 189 197 234 215 205 210 178 186 197 188 216 191 134 152 223 175 65 346 352 359 16 1 103 111 154 208 195 94 85 100 298 331 56 258 261 216 255 289 327 303 304 132 200 234 216 198 163 175 212 267 277 270 240 26
254 229 216 217 222 222 221 214 196 177 165 154 206 220 224 239 231 246 271 300 326 255 196 236 205 163 192 208 197 189 179 177 179 185 190 189 238 203 184 197 187 189 197 180 200 248 121 137 253 309 60 168 176 337 339 335 30 99 188 221 112 99 125 118 152 302 291 277 276 252 269 274 217 241 243 205 220 222 208 202 208 208 199 241 267 255 192 121
259 226 212 216 218 216 214 208 189 171 160 154 209 219 234 241 232 240 258 285 326 274 268 260 242 209 192 188 158 162 181 190 169 178 201 191 234 205 174 180 193 187 185 163 173 230 123 165 240 303 1 127 132 240 197 187 53 60 331 285 90 162 166 155 172 173 200 279 293 293 299 275 217 210 203 205 207 194 189 218 240 226 207 232 253 237 193 159
273 242 215 212 210 208 205 197 180 164 162 183 199 210 220 240 240 236 246 268 306 255 259 277 273 262 228 203 150 155 188 201 179 192 226 198 216 236 188 170 144 141 111 122 173 165 119 180 205 276 314 147 178 221 191 175 157 143 168 181 175 159 128 152 253 149 154 231 285 298 298 277 235 199 204 204 192 177 178 210 238 223 209 227 244 228 197 172
288 256 231 216 210 201 188 179 169 163 175 189 196 226 228 223 246 233 239 251 261 261 267 274 274 280 289 272 213 158 175 200 196 206 236 215 213 242 210 158 148 149 108 67 209 201 164 183 162 156 209 207 215 261 164 168 166 164 176 181 178 158 128 133 260 239 129 169 225 270 291 278 259 214 220 194 166 166 175 196 226 216 209 226 237 220 196 183
295 254 241 218 204 193 181 166 162 177 177 196 196 204 203 202 232 231 231 241 243 255 278 296 286 276 277 272 235 166 170 194 204 204 224 227 218 242 276 154 151 153 139 110 207 211 143 145 140 151 187 202 228 305 6 295 187 174 203 187 167 162 156 158 195 215 146 159 178 91 270 275 273 181 179 153 152 167 175 193 221 218 215 225 230 216 198 193
307 290 283 226 191 189 188 171 175 185 187 207 199 193 182 185 216 224 223 233 228 211 223 248 263 261 271 290 253 197 191 198 206 205 225 238 216 289 324 165 155 152 142 116 167 177 128 125 151 159 79 52 313 285 316 345 22 216 248 206 176 178 169 155 164 166 149 177 151 105 245 268 288 127 128 124 146 169 182 203 220 218 214 220 224 215 200 195
316 300 289 221 185 190 197 174 174 199 202 197 197 201 201 202 211 207 210 220 215 193 198 230 233 235 253 295 299 227 217 216 219 211 222 244 215 293 326 173 167 167 176 179 178 183 187 171 155 159 154 21 343 314 286 305 241 221 238 198 183 139 110 111 149 132 137 203 172 154 251 260 277 77 97 120 151 177 202 215 220 215 211 214 217 213 202 197
320 301 273 210 196 206 235 215 193 202 195 197 209 204 199 212 220 211 211 213 210 208 206 215 229 278 272 281 304 256 232 231 240 221 205 234 306 339 314 204 196 239 331 315 292 191 190 207 174 171 195 205 196 209 225 209 185 220 222 189 188 165 147 150 150 151 219 207 171 181 243 262 276 241 169 168 192 224 229 218 218 221 218 214 211 210 203 195
315 290 273 209 210 229 264 262 247 222 194 199 209 205 203 213 220 211 211 216 215 215 216 213 228 321 294 254 256 255 246 240 238 235 207 178 124 349 335 263 253 338 339 317 327 321 194 277 225 204 215 210 191 200 201 134 138 189 196 184 188 184 175 171 153 183 194 167 196 226 237 275 286 272 254 225 207 227 232 206 208 217 218 212 207 208 204 196
298 258 296 228 220 239 260 259 261 257 199 200 186 188 206 211 224 204 200 210 218 212 216 225 209 220 234 232 240 247 246 245 232 224 212 150 131 322 331 306 277 307 331 323 331 56 93 267 245 234 239 226 149 153 179 140 150 181 178 180 189 185 179 187 204 205 145 129 244 243 210 247 271 272 274 268 243 240 230 203 211 214 212 210 205 205 203 195
287 269 288 322 289 252 269 265 262 249 221 209 189 187 203 206 213 208 193 205 214 196 191 219 211 212 218 218 230 241 239 243 240 222 186 128 136 191 90 24 245 240 291 328 326 103 144 239 233 224 249 256 163 151 176 169 177 182 176 182 186 184 186 196 211 211 162 183 244 241 186 229 259 271 278 276 272 266 256 257 251 226 210 206 202 202 201 196
289 284 295 314 317 299 303 296 285 266 240 232 215 205 206 203 206 212 198 187 205 195 195 211 214 212 214 213 219 231 230 231 232 222 184 169 185 175 156 210 217 209 202 253 291 131 159 247 198 174 263 275 260 215 186 187 220 219 203 196 187 191 198 199 211 218 207 227 251 255 255 265 267 267 269 274 282 286 283 280 267 238 223 212 203 204 204 201
295 306 311 315 301 286 294 292 289 281 249 252 252 222 212 209 206 210 200 179 189 194 196 217 224 212 209 211 213 225 229 225 229 227 181 178 209 186 184 192 158 171 187 182 238 230 168 216 118 117 266 270 252 242 215 203 229 234 221 211 199 200 204 206 217 221 219 242 254 260 273 277 267 261 264 272 279 283 279 269 256 243 236 217 202 205 207 206
287 306 318 315 293 285 296 287 281 285 247 242 255 244 238 229 214 213 215 203 204 200 189 211 225 217 207 214 216 226 231 227 231 236 201 193 206 202 205 190 138 150 185 183 181 168 164 204 75 96 237 248 226 230 231 252 278 258 234 215 212 208 201 206 215 207 202 224 243 257 265 258 260 269 272 258 260 261 252 247 246 241 232 212 201 205 211 210
290 304 315 309 291 293 298 293 286 282 267 239 240 238 246 248 230 223 229 210 208 217 210 207 217 218 207 214 217 225 230 229 236 253 244 221 217 211 207 194 160 158 169 171 173 162 163 180 143 141 210 260 280 223 174 53 303 269 230 200 213 217 205 209 221 215 208 209 217 231 236 241 253 273 276 250 230 222 229 232 233 229 219 213 209 209 217 217